[[{"header":{"parameterUnit":"m.s-1","parameterCategory":2,"la1":30.2992,"la2":30.254,"lo1":-89.0895,"lo2":-89.0443,"dy":0.0025,"dx":0.0025,"nx":19,"ny":19,"refTime":"2026-05-09T21:00:00:Z","depth":"0","parameterNumber":2,"parameterNumberName":"U-component_of_CURRENTS"},"data":[0,0,0,-0.2483,-0.2484,-0.2508,-0.2508,-0.2463,-0.2462,0,0,0,0,0,0,0,0,0,0,0,-0.2465,-0.2465,-0.2483,-0.2484,-0.2508,-0.2508,-0.2463,-0.2462,0,0,0,0,0,0,0,0,0,0,0,-0.2465,-0.2465,-0.2466,-0.2484,-0.2508,-0.2508,-0.2463,-0.246,0,0,0,0,0,0,0,0,0,0,-0.2445,-0.2442,-0.2465,-0.2466,-0.2485,-0.2508,-0.2508,-0.2461,-0.246,-0.2435,0,-0.2445,0,-0.2462,-0.2459,-0.2459,0,0,0,-0.2469,-0.2442,-0.2456,-0.2466,-0.2485,-0.2508,-0.2493,-0.2461,-0.246,-0.2434,-0.2445,-0.2444,-0.2461,-0.2459,-0.2458,-0.2434,-0.2435,0,0,-0.2468,-0.2459,-0.2457,-0.2456,-0.2498,-0.2492,-0.2494,-0.2461,-0.2457,-0.2445,-0.2443,-0.2461,-0.2458,-0.2458,-0.2434,-0.2434,0,0,0,-0.2474,-0.2458,-0.2473,-0.2457,-0.2473,-0.2493,-0.2495,-0.2458,-0.2466,-0.2443,-0.246,-0.2458,-0.2457,-0.2434,-0.2434,-0.2506,0,0,0,-0.2473,-0.2463,-0.2473,-0.2466,-0.2474,-0.2477,-0.2493,-0.2468,-0.2465,-0.246,-0.2458,-0.2457,-0.2434,-0.2434,-0.2504,-0.2562,0,0,0,-0.2463,-0.2462,-0.2469,-0.2466,-0.2485,-0.2478,-0.2483,-0.2468,-0.2476,-0.2459,-0.2457,-0.2434,-0.2434,-0.2502,-0.2557,-0.2628,0,0,0,-0.2447,-0.2472,-0.2468,-0.2512,-0.2485,-0.2514,-0.2484,-0.2485,-0.2473,-0.2458,-0.2434,-0.2434,-0.2501,-0.2555,-0.2624,-0.2657,-0.2676,0,0,-0.2474,-0.2474,-0.2507,-0.2506,-0.2562,-0.2509,-0.2539,-0.2503,-0.2467,-0.2436,-0.2436,-0.2505,-0.2557,-0.2627,-0.2672,-0.2691,0,0,0,-0.2515,-0.2534,-0.2551,-0.2587,-0.2595,-0.2601,-0.2554,-0.2528,-0.2504,-0.2465,-0.249,-0.2521,-0.2563,-0.2574,-0.2589,-0.2398,-0.2436,-0.2436,-0.2435,-0.2499,-0.2549,-0.2604,-0.2652,-0.2665,-0.2648,-0.2644,-0.2596,-0.2537,-0.2534,-0.2567,-0.2656,-0.2666,-0.2678,-0.2479,-0.2538,-0.2539,-0.2539,-0.2539,-0.255,-0.2594,-0.2648,-0.2715,-0.273,-0.2738,-0.2721,-0.2686,-0.2689,-0.2617,-0.2654,-0.2634,-0.2698,-0.248,-0.2543,-0.2543,-0.2542,-0.2542,-0.2541,-0.2538,-0.2573,-0.2625,-0.273,-0.2784,-0.2795,-0.2866,-0.2826,-0.2776,-0.2807,-0.2821,-0.2819,-0.2641,-0.2824,-0.2825,-0.2825,-0.2826,-0.2826,-0.2826,-0.2503,-0.2569,-0.2649,-0.2747,-0.2817,-0.2889,-0.295,-0.2981,-0.2977,-0.2924,-0.2923,-0.2644,-0.2743,-0.2748,-0.2835,-0.2834,-0.2832,-0.2832,-0.2831,-0.2508,-0.2536,-0.2656,-0.2738,-0.2909,-0.2927,-0.305,-0.3125,-0.3176,-0.3179,-0.2814,-0.2982,-0.2972,-0.2959,-0.2968,-0.3108,-0.3108,-0.3108,-0.3108,-0.2486,-0.2519,-0.2658,-0.2792,-0.2937,-0.2948,-0.2958,-0.294,-0.2886,-0.2776,-0.2817,-0.2708,-0.2705,-0.2672,-0.2665,-0.2664,-0.2723,-0.2722,-0.2721,-0.2484,-0.2525,-0.2594,-0.274,-0.2924,-0.2905,-0.2725,-0.2518,-0.254,-0.2681,-0.2544,-0.2561,-0.237,-0.2382,-0.2301,-0.2307,-0.2296,0,0]},{"header":{"parameterUnit":"m.s-1","parameterCategory":2,"la1":30.2992,"la2":30.254,"lo1":-89.0895,"lo2":-89.0443,"dy":0.0025,"dx":0.0025,"nx":19,"ny":19,"refTime":"2026-05-09T21:00:00:Z","depth":"0","parameterNumber":3,"parameterNumberName":"V-component_of_CURRENTS"},"data":[0,0,0,-0.0123,-0.0121,-0.0006,-0.0005,0.0164,0.0166,0,0,0,0,0,0,0,0,0,0,0,-0.0164,-0.0164,-0.0123,-0.0121,-0.0006,-0.0005,0.0164,0.0166,0,0,0,0,0,0,0,0,0,0,0,-0.0165,-0.0164,-0.0163,-0.0121,-0.0006,-0.0005,0.0163,0.0074,0,0,0,0,0,0,0,0,0,0,-0.0039,-0.009,-0.0164,-0.0163,-0.012,-0.0006,-0.0005,0.007,0.008,0.0114,0,0.0124,0,0.0145,0.0176,0.0177,0,0,0,-0.0108,-0.0098,-0.0064,-0.0163,-0.0119,-0.0007,-0.0054,0.0075,0.0087,0.0128,0.0126,0.0133,0.0148,0.0177,0.0178,0.0309,0.0309,0,0,-0.0114,-0.0141,-0.0072,-0.0058,-0.0099,-0.0058,-0.0051,0.0082,0.0089,0.0127,0.0137,0.015,0.0178,0.0179,0.0309,0.0309,0,0,0,-0.0141,-0.0146,-0.0115,-0.0065,-0.0047,-0.0055,-0.0047,0.0083,0.0093,0.0139,0.0152,0.0179,0.0181,0.0309,0.0309,0.0281,0,0,0,-0.0144,-0.0162,-0.0118,-0.0133,-0.0051,0.0015,-0.0049,0.0084,0.01,0.0151,0.0179,0.0183,0.0308,0.0309,0.0281,0.0261,0,0,0,-0.0168,-0.0164,-0.0154,-0.0135,-0.009,0.0013,0.0032,0.0088,0.0108,0.0177,0.0183,0.0308,0.0309,0.0281,0.0262,0.0288,0,0,0,-0.0195,-0.0191,-0.0155,-0.0131,-0.0092,-0.0018,0.0031,0.0095,0.0149,0.018,0.0308,0.0309,0.0281,0.0262,0.0288,0.0269,0.0268,0,0,-0.0207,-0.0193,-0.0174,-0.0139,-0.0079,-0.0033,0.0037,0.0125,0.0172,0.0268,0.0272,0.0281,0.0262,0.0288,0.0303,0.03,0,0,0,-0.0188,-0.0182,-0.0153,-0.0108,-0.0043,0.0017,0.0095,0.0141,0.0228,0.0205,0.0301,0.029,0.0307,0.0297,0.0295,0.0418,0.0312,0.0312,0.0312,-0.0259,-0.0201,-0.0174,-0.0102,-0.0046,0.0058,0.0116,0.0193,0.0234,0.0266,0.0282,0.0301,0.0289,0.0288,0.0415,0.0304,0.0304,0.0303,0.0303,-0.0303,-0.0297,-0.0207,-0.0172,-0.0077,-0.0018,0.0131,0.0178,0.0277,0.0288,0.0307,0.0285,0.0284,0.042,0.0302,0.0302,0.0302,0.0303,0.0303,-0.038,-0.0371,-0.0338,-0.0283,-0.0206,-0.0087,-0.0007,0.0117,0.0236,0.0268,0.0281,0.0281,0.039,0.028,0.028,0.028,0.028,0.028,0.028,-0.0492,-0.0449,-0.0477,-0.0401,-0.038,-0.0295,-0.0097,-0.0008,0.0154,0.0251,0.0252,0.0416,0.0294,0.0282,0.0281,0.028,0.028,0.028,0.028,-0.0599,-0.0592,-0.0649,-0.0651,-0.0584,-0.0541,-0.0326,-0.0097,0.0042,0.012,0.0404,0.0262,0.0275,0.0276,0.0265,0.0259,0.0259,0.0259,0.0259,-0.0699,-0.0687,-0.0805,-0.0841,-0.0811,-0.0663,-0.0546,-0.0265,0.0155,0.0358,0.0467,0.048,0.0476,0.0502,0.0499,0.0493,0.0546,0.0546,0.0547,-0.0784,-0.0818,-0.0934,-0.0954,-0.0921,-0.0802,-0.0689,-0.0394,0.0222,0.0574,0.0647,0.0635,0.067,0.0652,0.0704,0.0689,0.0683,0,0]}],[{"header":{"parameterUnit":"m.s-1","parameterCategory":2,"la1":30.2992,"la2":30.254,"lo1":-89.0895,"lo2":-89.0443,"dy":0.0025,"dx":0.0025,"nx":19,"ny":19,"refTime":"2026-05-09T21:00:00:Z","depth":"2","parameterNumber":2,"parameterNumberName":"U-component_of_CURRENTS"},"data":[0,0,0,-0.1483,-0.1483,-0.1496,-0.1496,-0.1383,-0.1381,0,0,0,0,0,0,0,0,0,0,0,-0.1494,-0.1494,-0.1483,-0.1483,-0.1496,-0.1496,-0.1383,-0.1381,0,0,0,0,0,0,0,0,0,0,0,-0.1494,-0.1494,-0.1495,-0.1483,-0.1496,-0.1496,-0.1383,-0.1408,0,0,0,0,0,0,0,0,0,0,-0.1413,-0.1433,-0.1494,-0.1495,-0.1483,-0.1496,-0.1496,-0.1411,-0.1406,-0.1336,0,-0.1347,0,-0.1345,-0.1369,-0.1369,0,0,0,-0.1494,-0.1437,-0.144,-0.1495,-0.1483,-0.1496,-0.1493,-0.141,-0.1404,-0.1329,-0.1345,-0.1341,-0.1343,-0.1368,-0.1367,-0.1314,-0.1315,0,0,-0.1493,-0.149,-0.1444,-0.1437,-0.1493,-0.1493,-0.1493,-0.1408,-0.1402,-0.1345,-0.1339,-0.1341,-0.1367,-0.1366,-0.1313,-0.1314,0,0,0,-0.1484,-0.149,-0.1498,-0.1441,-0.1445,-0.1493,-0.1494,-0.1406,-0.141,-0.1338,-0.134,-0.1366,-0.1364,-0.1312,-0.1314,-0.1409,0,0,0,-0.1484,-0.1483,-0.1498,-0.1495,-0.1448,-0.1441,-0.1494,-0.1417,-0.1407,-0.134,-0.1366,-0.1362,-0.1312,-0.1313,-0.1405,-0.1409,0,0,0,-0.1492,-0.1483,-0.1489,-0.1495,-0.1495,-0.1443,-0.1443,-0.1416,-0.1406,-0.1369,-0.1362,-0.1311,-0.1313,-0.1401,-0.1404,-0.1452,0,0,0,-0.1484,-0.1493,-0.1489,-0.1459,-0.1495,-0.1485,-0.1444,-0.1427,-0.1401,-0.1365,-0.1312,-0.1313,-0.14,-0.14,-0.1449,-0.1507,-0.1528,0,0,-0.1491,-0.1494,-0.1465,-0.146,-0.1436,-0.1484,-0.1484,-0.1435,-0.1404,-0.1329,-0.1329,-0.1407,-0.1403,-0.1452,-0.1605,-0.1622,0,0,0,-0.1459,-0.1463,-0.1444,-0.1421,-0.141,-0.1462,-0.1449,-0.1443,-0.1442,-0.1394,-0.1414,-0.1408,-0.1436,-0.1465,-0.1479,-0.1321,-0.1321,-0.1321,-0.1321,-0.1512,-0.1463,-0.1454,-0.1433,-0.1431,-0.1448,-0.1475,-0.1481,-0.1453,-0.1486,-0.1494,-0.16,-0.1634,-0.1645,-0.1521,-0.1522,-0.1522,-0.1522,-0.1523,-0.1522,-0.1507,-0.1491,-0.1487,-0.1511,-0.1554,-0.1542,-0.1552,-0.1581,-0.1556,-0.1581,-0.1573,-0.1666,-0.153,-0.1529,-0.1528,-0.1527,-0.1526,-0.1526,-0.1513,-0.1525,-0.1523,-0.1541,-0.1626,-0.1666,-0.1715,-0.1696,-0.1669,-0.1693,-0.1747,-0.1746,-0.1636,-0.1751,-0.1752,-0.1752,-0.1752,-0.1752,-0.1753,-0.1527,-0.1528,-0.1558,-0.1618,-0.1681,-0.1781,-0.183,-0.1833,-0.1847,-0.1829,-0.183,-0.1676,-0.1668,-0.1648,-0.1757,-0.1756,-0.1755,-0.1755,-0.1755,-0.1473,-0.1513,-0.1556,-0.1599,-0.1709,-0.1727,-0.1844,-0.1918,-0.1969,-0.1967,-0.1895,-0.189,-0.1854,-0.1842,-0.1826,-0.1973,-0.1973,-0.1973,-0.1973,-0.1467,-0.1479,-0.155,-0.1556,-0.1622,-0.1658,-0.1674,-0.1662,-0.1742,-0.1732,-0.174,-0.1689,-0.169,-0.1637,-0.163,-0.1605,-0.1696,-0.1694,-0.1693,-0.1427,-0.15,-0.1507,-0.1519,-0.1545,-0.1547,-0.1448,-0.1361,-0.1503,-0.1664,-0.15,-0.1992,-0.1944,-0.1933,-0.187,-0.1852,-0.182,0,0]},{"header":{"parameterUnit":"m.s-1","parameterCategory":2,"la1":30.2992,"la2":30.254,"lo1":-89.0895,"lo2":-89.0443,"dy":0.0025,"dx":0.0025,"nx":19,"ny":19,"refTime":"2026-05-09T21:00:00:Z","depth":"2","parameterNumber":3,"parameterNumberName":"V-component_of_CURRENTS"},"data":[0,0,0,-0.0357,-0.0357,-0.0308,-0.0308,-0.0277,-0.0277,0,0,0,0,0,0,0,0,0,0,0,-0.0349,-0.0349,-0.0357,-0.0357,-0.0308,-0.0308,-0.0277,-0.0277,0,0,0,0,0,0,0,0,0,0,0,-0.0349,-0.0349,-0.0348,-0.0357,-0.0308,-0.0308,-0.0277,-0.03,0,0,0,0,0,0,0,0,0,0,-0.0341,-0.0358,-0.0349,-0.0348,-0.0357,-0.0308,-0.0307,-0.0301,-0.0299,-0.0315,0,-0.0302,0,-0.0311,-0.0278,-0.0278,0,0,0,-0.0334,-0.0359,-0.0335,-0.0348,-0.0356,-0.0308,-0.0324,-0.0299,-0.0297,-0.0313,-0.0302,-0.0301,-0.031,-0.0278,-0.0278,-0.0204,-0.0203,0,0,-0.0337,-0.0353,-0.0336,-0.0333,-0.0338,-0.0325,-0.0322,-0.0297,-0.0301,-0.0302,-0.0301,-0.031,-0.0278,-0.0278,-0.0205,-0.0204,0,0,0,-0.036,-0.0356,-0.033,-0.0334,-0.0335,-0.0325,-0.0321,-0.0301,-0.0289,-0.03,-0.031,-0.0278,-0.0278,-0.0206,-0.0205,-0.0197,0,0,0,-0.036,-0.0371,-0.0332,-0.0343,-0.0335,-0.0321,-0.0326,-0.029,-0.0288,-0.031,-0.0278,-0.0278,-0.0207,-0.0205,-0.0199,-0.0254,0,0,0,-0.0353,-0.0371,-0.036,-0.0344,-0.0334,-0.0321,-0.0307,-0.0289,-0.0296,-0.0278,-0.0278,-0.0208,-0.0206,-0.0201,-0.0255,-0.0228,0,0,0,-0.0378,-0.0381,-0.036,-0.0377,-0.0335,-0.0336,-0.0307,-0.0304,-0.0291,-0.0278,-0.0207,-0.0205,-0.0202,-0.0256,-0.0229,-0.0233,-0.0229,0,0,-0.0399,-0.0384,-0.0396,-0.0377,-0.0399,-0.0341,-0.0322,-0.0287,-0.0256,-0.0216,-0.0214,-0.0198,-0.0256,-0.0228,-0.011,-0.011,0,0,0,-0.0416,-0.0419,-0.0422,-0.0432,-0.0421,-0.0376,-0.0332,-0.0283,-0.0198,-0.0242,-0.0157,-0.0194,-0.0177,-0.0179,-0.0178,-0.0195,-0.0195,-0.0195,-0.0195,-0.0449,-0.0455,-0.0479,-0.0469,-0.0459,-0.0393,-0.0332,-0.0244,-0.021,-0.0144,-0.0154,-0.0092,-0.009,-0.009,-0.0084,-0.0084,-0.0084,-0.0084,-0.0084,-0.0508,-0.0528,-0.0517,-0.0534,-0.0481,-0.0439,-0.032,-0.0248,-0.0137,-0.0114,-0.0095,-0.013,-0.0089,-0.0082,-0.0083,-0.0083,-0.0083,-0.0083,-0.0083,-0.0551,-0.0558,-0.0565,-0.0591,-0.0538,-0.0447,-0.0394,-0.0275,-0.0162,-0.0129,-0.0096,-0.0097,-0.0132,-0.0087,-0.0087,-0.0087,-0.0087,-0.0087,-0.0087,-0.0595,-0.0606,-0.065,-0.064,-0.0639,-0.0579,-0.0439,-0.0379,-0.0226,-0.0122,-0.0121,-0.0094,-0.0094,-0.0131,-0.0088,-0.0088,-0.0088,-0.0088,-0.0088,-0.0661,-0.0669,-0.0756,-0.0787,-0.0807,-0.0815,-0.066,-0.0484,-0.0356,-0.029,-0.01,-0.0099,-0.0113,-0.0113,-0.0149,-0.0114,-0.0114,-0.0114,-0.0114,-0.0703,-0.0715,-0.0862,-0.0973,-0.1027,-0.0957,-0.0889,-0.0665,-0.0397,-0.0237,-0.0233,-0.0229,-0.0224,-0.0245,-0.0242,-0.0281,-0.0281,-0.0282,-0.0282,-0.0758,-0.0802,-0.0926,-0.1054,-0.1153,-0.1116,-0.101,-0.0695,-0.0337,-0.0294,-0.0321,-0.0114,-0.0093,-0.0092,-0.0111,-0.0111,-0.0169,0,0]}],[{"header":{"parameterUnit":"m.s-1","parameterCategory":2,"la1":30.2992,"la2":30.254,"lo1":-89.0895,"lo2":-89.0443,"dy":0.0025,"dx":0.0025,"nx":19,"ny":19,"refTime":"2026-05-09T21:00:00:Z","depth":"4","parameterNumber":2,"parameterNumberName":"U-component_of_CURRENTS"},"data":[0,0,0,-0.062,-0.0622,-0.077,-0.077,-0.1016,-0.1018,0,0,0,0,0,0,0,0,0,0,0,-0.0599,-0.06,-0.0619,-0.0622,-0.0769,-0.0771,-0.1016,-0.1018,0,0,0,0,0,0,0,0,0,0,0,-0.0598,-0.06,-0.0601,-0.0622,-0.0769,-0.0771,-0.1015,-0.0897,0,0,0,0,0,0,0,0,0,0,-0.075,-0.0696,-0.0599,-0.0601,-0.0623,-0.0769,-0.0771,-0.0891,-0.0905,-0.0955,0,-0.0983,0,-0.0981,-0.1033,-0.1034,0,0,0,-0.0654,-0.0684,-0.0729,-0.0601,-0.0624,-0.0769,-0.0712,-0.0899,-0.0914,-0.0973,-0.0986,-0.0994,-0.0985,-0.1034,-0.1035,-0.1349,-0.1351,0,0,-0.0645,-0.0623,-0.0719,-0.0739,-0.067,-0.0707,-0.0716,-0.0907,-0.0924,-0.0987,-0.0999,-0.0989,-0.1036,-0.1037,-0.1347,-0.1349,0,0,0,-0.0601,-0.0618,-0.0658,-0.073,-0.0739,-0.071,-0.0721,-0.0917,-0.0932,-0.1001,-0.0992,-0.1037,-0.104,-0.1345,-0.1348,-0.1419,0,0,0,-0.0597,-0.0589,-0.0654,-0.0642,-0.0734,-0.0815,-0.0726,-0.092,-0.094,-0.0991,-0.1037,-0.1042,-0.1343,-0.1347,-0.1413,-0.1429,0,0,0,-0.0591,-0.0587,-0.0608,-0.0641,-0.0687,-0.0812,-0.0839,-0.0925,-0.0933,-0.1034,-0.1043,-0.1342,-0.1346,-0.1407,-0.1421,-0.1456,0,0,0,-0.0558,-0.0584,-0.0608,-0.0644,-0.0686,-0.0793,-0.0838,-0.095,-0.1041,-0.1038,-0.1343,-0.1348,-0.1406,-0.1416,-0.1452,-0.0986,0,0,0,-0.0566,-0.0585,-0.0607,-0.0631,-0.0713,-0.0774,-0.0899,-0.1041,-0.1127,-0.1285,-0.1292,-0.1415,-0.1421,-0.1455,-0.1241,0,0,0,0,-0.0593,-0.0603,-0.0641,-0.0689,-0.0779,-0.0888,-0.0998,-0.1106,-0.1331,-0.1193,-0.1481,-0.1484,-0.1502,-0.1222,-0.1368,-0.1368,-0.1367,-0.1367,-0.1366,-0.0559,-0.0604,-0.0658,-0.073,-0.0818,-0.0988,-0.1139,-0.1317,-0.1375,-0.1521,-0.1591,-0.1734,-0.1449,-0.1656,-0.1657,-0.1657,-0.1657,-0.1658,-0.1658,-0.0549,-0.0576,-0.0665,-0.0733,-0.0874,-0.1008,-0.1303,-0.1425,-0.1699,-0.1716,-0.173,-0.138,-0.1667,-0.1665,-0.1663,-0.1663,-0.1662,-0.1661,-0.1661,-0.0506,-0.0532,-0.058,-0.0691,-0.0866,-0.1074,-0.1277,-0.16,-0.177,-0.1864,-0.1554,-0.1786,-0.172,-0.1879,-0.1879,-0.1879,-0.1879,-0.188,-0.188,-0.0451,-0.0502,-0.0534,-0.067,-0.0759,-0.0947,-0.1336,-0.1389,-0.1626,-0.1593,-0.1891,-0.1808,-0.1801,-0.1735,-0.1884,-0.1883,-0.1883,-0.1882,-0.1882,-0.0392,-0.0425,-0.0443,-0.0497,-0.0626,-0.0741,-0.1078,-0.112,-0.1182,-0.1069,-0.1431,-0.1452,-0.1372,-0.1376,-0.1289,-0.1313,-0.1308,-0.1302,0,-0.0347,-0.0368,-0.0359,-0.0381,-0.0401,-0.0611,-0.0543,-0.0574,-0.0842,-0.0966,-0.1098,-0.1518,-0.1529,-0.1439,-0.1434,-0.1331,0,0,0,-0.0309,-0.0308,-0.0264,-0.028,-0.0319,-0.0355,-0.0515,-0.0543,-0.0898,-0.0579,-0.1164,-0.12,-0.1131,-0.1898,-0.1825,-0.1816,-0.1705,0,0]},{"header":{"parameterUnit":"m.s-1","parameterCategory":2,"la1":30.2992,"la2":30.254,"lo1":-89.0895,"lo2":-89.0443,"dy":0.0025,"dx":0.0025,"nx":19,"ny":19,"refTime":"2026-05-09T21:00:00:Z","depth":"4","parameterNumber":3,"parameterNumberName":"V-component_of_CURRENTS"},"data":[0,0,0,-0.0197,-0.0197,-0.0192,-0.0192,-0.0185,-0.0185,0,0,0,0,0,0,0,0,0,0,0,-0.0204,-0.0204,-0.0197,-0.0197,-0.0192,-0.0192,-0.0185,-0.0185,0,0,0,0,0,0,0,0,0,0,0,-0.0204,-0.0204,-0.0204,-0.0197,-0.0192,-0.0192,-0.0185,-0.0189,0,0,0,0,0,0,0,0,0,0,-0.0193,-0.0201,-0.0204,-0.0204,-0.0197,-0.0192,-0.0192,-0.0189,-0.0189,-0.0186,0,-0.0189,0,-0.0183,-0.0184,-0.0184,0,0,0,-0.0198,-0.0202,-0.0198,-0.0204,-0.0197,-0.0192,-0.0195,-0.0189,-0.0188,-0.0185,-0.0188,-0.0188,-0.0183,-0.0184,-0.0184,-0.0167,-0.0167,0,0,-0.0198,-0.0204,-0.0198,-0.0198,-0.02,-0.0195,-0.0195,-0.0189,-0.0191,-0.0188,-0.0188,-0.0183,-0.0184,-0.0184,-0.0167,-0.0167,0,0,0,-0.0198,-0.0205,-0.0201,-0.0198,-0.0196,-0.0195,-0.0194,-0.0192,-0.019,-0.0187,-0.0183,-0.0184,-0.0184,-0.0167,-0.0167,-0.0236,0,0,0,-0.0198,-0.0204,-0.0202,-0.0205,-0.0196,-0.0194,-0.0198,-0.0191,-0.019,-0.0183,-0.0184,-0.0183,-0.0168,-0.0167,-0.0235,-0.0298,0,0,0,-0.0203,-0.0205,-0.0205,-0.0206,-0.0202,-0.0194,-0.0192,-0.019,-0.0187,-0.0184,-0.0183,-0.0168,-0.0167,-0.0233,-0.0294,-0.029,0,0,0,-0.0208,-0.0222,-0.0205,-0.0228,-0.0202,-0.0234,-0.0192,-0.0208,-0.0212,-0.0184,-0.0168,-0.0167,-0.0233,-0.0292,-0.0288,-0.0308,0,0,0,-0.0229,-0.0224,-0.024,-0.0226,-0.027,-0.0234,-0.0288,-0.0266,-0.0201,-0.017,-0.017,-0.0235,-0.0294,-0.0289,-0.0293,0,0,0,0,-0.025,-0.0259,-0.0272,-0.0292,-0.0307,-0.0345,-0.0316,-0.0289,-0.0237,-0.0199,-0.0211,-0.0246,-0.0241,-0.0245,-0.0166,-0.0166,-0.0166,-0.0166,-0.0166,-0.0274,-0.0292,-0.0336,-0.0364,-0.0396,-0.0417,-0.0427,-0.0377,-0.0301,-0.0267,-0.0282,-0.0306,-0.0311,-0.0241,-0.0241,-0.0241,-0.0242,-0.0242,-0.0242,-0.0313,-0.0347,-0.039,-0.0438,-0.0491,-0.0538,-0.0527,-0.0476,-0.0407,-0.0333,-0.0322,-0.0294,-0.0248,-0.0247,-0.0246,-0.0245,-0.0245,-0.0244,-0.0244,-0.0329,-0.0355,-0.0385,-0.0476,-0.0574,-0.0619,-0.0684,-0.0615,-0.0481,-0.0469,-0.0403,-0.0347,-0.0362,-0.0418,-0.0418,-0.0418,-0.0419,-0.0419,-0.0419,-0.0338,-0.0374,-0.0435,-0.053,-0.0611,-0.0696,-0.0751,-0.0728,-0.0607,-0.0502,-0.0462,-0.0365,-0.0359,-0.0371,-0.0423,-0.0422,-0.0422,-0.0421,-0.0421,-0.0363,-0.0377,-0.0461,-0.0536,-0.0694,-0.0754,-0.0824,-0.0794,-0.0734,-0.0642,-0.0506,-0.05,-0.0477,-0.0468,-0.0483,-0.0571,-0.0571,-0.0572,0,-0.0377,-0.0391,-0.0492,-0.0603,-0.0704,-0.0787,-0.0786,-0.0777,-0.0659,-0.0609,-0.0655,-0.0498,-0.0494,-0.0465,-0.0458,-0.0475,0,0,0,-0.0399,-0.0421,-0.0487,-0.0585,-0.0715,-0.0723,-0.0772,-0.0763,-0.0657,-0.0704,-0.0584,-0.0581,-0.0593,-0.0435,-0.0386,-0.0379,-0.0394,0,0]}]]